Weather History for KCRP - August, 2012

Change the Weather History Date:

Thursday, August 23, 2012

  Actual Average Record
Temperature  
Mean Temperature 87 °F 85 °F  
Max Temperature 97 °F 94 °F 102 °F (2010)
Min Temperature 77 °F 75 °F 66 °F (1949)
Degree Days  
Heating Degree Days 0 0  
Month to date heating degree days 0 0  
Since 1 June heating degree days 0 0  
Since 1 July heating degree days 0 0  
Cooling Degree Days 22 20  
Month to date cooling degree days 525 460  
Year to date cooling degree days 3025 2410  
Since 1 June cooling degree days 1792 1569  
Growing Degree Days 38 (Base 50)    
Moisture  
Dew Point 72 °F    
Average Humidity 64    
Maximum Humidity 85    
Minimum Humidity 42    
Precipitation  
Precipitation 0.00 in 0.11 in 2.04 in (1999)
Month to date precipitation 0.12 1.82  
Year to date precipitation 14.42 18.24  
Snow  
Snow 0.00 in - - ()
Month to date snowfall 0.0  
Since 1 June snowfall 0.0  
Since 1 July snowfall 0.0  
Snow Depth 0.00 in    
Sea Level Pressure  
Sea Level Pressure 29.94 in    
Wind  
Wind Speed 8 mph (SE)    
Max Wind Speed 20 mph    
Max Gust Speed 26 mph    
Visibility 10 miles    
Events      
T = Trace of Precipitation, MM = Missing Value Source: NWS Daily Summary

Daily Weather History Graph

Daily Weather History Graph

Search for Another Location

Airport or City:

Trip Planner

Search our weather history database for the weather conditions in past years. The results will help you decide how hot, cold, wet, or windy it might be!

Date:

Astronomy

Aug. 23, 2012 Rise Set
Actual Time 7:04 AM CDT 7:59 PM CDT
Civil Twilight 6:40 AM CDT 8:23 PM CDT
Nautical Twilight 6:12 AM CDT 8:52 PM CDT
Astronomical Twilight 5:42 AM CDT 9:21 PM CDT
Moon 1:12 PM CDT (8/23) No Moon Set
Length of Visible Light 13h 43m
Length of Day
12h 55m
Waxing Crescent, 40% of the Moon is Illuminated
Aug 23
Waxing Crescent
Aug 24
First Quarter
Aug 31
Full
Sep 8
Last Quarter
Sep 15
New

Hourly Weather History & Observations

Time (CDT) Temp. Heat Index Dew Point Humidity Pressure Visibility Wind Dir Wind Speed Gust Speed Precip Events Conditions
12:51 AM 82.9 °F 88.0 °F 72.0 °F 69% 29.97 in 10.0 mi SE 11.5 mph - N/A   Partly Cloudy
1:51 AM 82.0 °F 86.7 °F 72.0 °F 71% 29.96 in 10.0 mi SSE 4.6 mph - N/A   Partly Cloudy
2:25 AM 82.4 °F 87.2 °F 71.6 °F 70% 29.96 in 10.0 mi SE 3.5 mph - N/A   Mostly Cloudy
2:41 AM 82.4 °F 87.2 °F 71.6 °F 70% 29.96 in 10.0 mi ESE 5.8 mph - N/A   Mostly Cloudy
2:51 AM 82.0 °F 87.4 °F 73.0 °F 74% 29.96 in 10.0 mi SE 4.6 mph - N/A   Scattered Clouds
3:51 AM 82.0 °F 87.4 °F 73.0 °F 74% 29.96 in 10.0 mi SE 4.6 mph - N/A   Mostly Cloudy
4:51 AM 80.6 °F 85.4 °F 73.4 °F 79% 29.95 in 10.0 mi South 3.5 mph - N/A   Scattered Clouds
5:51 AM 79.0 °F - 73.9 °F 84% 29.96 in 10.0 mi SSW 3.5 mph - N/A   Partly Cloudy
6:51 AM 78.1 °F - 72.0 °F 81% 29.96 in 10.0 mi Calm Calm - N/A   Partly Cloudy
7:51 AM 79.0 °F - 72.0 °F 79% 29.96 in 10.0 mi NW 3.5 mph - N/A   Partly Cloudy
8:51 AM 84.0 °F 91.9 °F 75.0 °F 74% 29.98 in 10.0 mi Calm Calm - N/A   Partly Cloudy
9:51 AM 86.0 °F 93.0 °F 73.0 °F 65% 29.98 in 10.0 mi Calm Calm - N/A   Scattered Clouds
10:51 AM 89.1 °F 95.0 °F 71.1 °F 55% 29.99 in 10.0 mi SE 3.5 mph - N/A   Scattered Clouds
11:51 AM 93.0 °F 99.0 °F 70.0 °F 47% 29.97 in 10.0 mi Variable 3.5 mph - N/A   Scattered Clouds
12:51 PM 91.9 °F 97.4 °F 70.0 °F 48% 29.95 in 10.0 mi ESE 4.6 mph - N/A   Scattered Clouds
1:51 PM 93.9 °F 98.6 °F 68.0 °F 43% 29.94 in 10.0 mi Variable 4.6 mph - N/A   Scattered Clouds
2:51 PM 96.1 °F 102.9 °F 70.0 °F 43% 29.91 in 10.0 mi SE 11.5 mph 20.7 mph N/A   Scattered Clouds
3:51 PM 96.1 °F 104.9 °F 72.0 °F 46% 29.90 in 10.0 mi ESE 15.0 mph - N/A   Scattered Clouds
4:51 PM 95.0 °F 102.5 °F 71.1 °F 46% 29.88 in 10.0 mi ESE 13.8 mph 21.9 mph N/A   Partly Cloudy
5:51 PM 93.0 °F 100.7 °F 72.0 °F 50% 29.89 in 10.0 mi ESE 17.3 mph - N/A   Partly Cloudy
6:51 PM 90.0 °F 96.9 °F 72.0 °F 55% 29.88 in 10.0 mi ESE 17.3 mph - N/A   Partly Cloudy
7:51 PM 88.0 °F 94.7 °F 72.0 °F 59% 29.88 in 10.0 mi ESE 17.3 mph - N/A   Partly Cloudy
8:51 PM 86.0 °F 93.0 °F 73.0 °F 65% 29.89 in 10.0 mi SE 13.8 mph - N/A   Partly Cloudy
9:51 PM 84.9 °F 92.1 °F 73.9 °F 69% 29.91 in 10.0 mi SSE 11.5 mph - N/A   Partly Cloudy
10:51 PM 84.0 °F 91.2 °F 73.9 °F 72% 29.92 in 10.0 mi SE 8.1 mph - N/A   Partly Cloudy
11:51 PM 82.9 °F 90.2 °F 75.0 °F 77% 29.91 in 10.0 mi SSE 8.1 mph - N/A   Partly Cloudy